Simultaneous Nadir Overpasses (SNOs) Predictions

Prediction of SNOs between AQUA and NPP Satellite Orbit:

Table of predicted SNOs for the next 14.0 days since TLE Epoch: 1/28/2023
Index Date (AQUA) Time (AQUA) Lat,Lon (AQUA) SZA (AQUA ) Date (NPP) Time (NPP) Lat,Lon (NPP) SZA (NPP ) Distance(km) Time Diff (sec)
1 01/28/2023 14:49:54 79.27,-146.69 111.07 01/28/2023 14:49:19 79.26,-146.78 111.12 2.04 35
2 01/28/2023 15:39:10 -79.64, 23.56 69.49 01/28/2023 15:39:53 -79.64, 23.66 69.54 1.89 43
3 01/31/2023 06:15:32 -79.37, 162.58 69.77 01/31/2023 06:15:28 -79.36, 162.44 69.73 3.16 4
4 01/31/2023 07:04:39 80.02, -24.83 109.25 01/31/2023 07:05:53 79.97, -24.82 109.20 5.57 74
5 02/02/2023 20:51:48 -79.23, -57.33 70.29 02/02/2023 20:50:57 -79.23, -57.43 70.24 2.10 51
6 02/02/2023 21:41:04 79.57, 112.62 109.21 02/02/2023 21:41:31 79.57, 112.62 109.20 0.16 27
7 02/05/2023 12:17:20 79.43,-107.37 108.66 02/05/2023 12:17:01 79.43,-107.34 108.67 0.63 19
8 02/05/2023 13:06:40 -79.66, 61.87 71.68 02/05/2023 13:07:40 -79.65, 61.81 71.72 1.26 60
9 02/08/2023 02:53:35 79.29, 32.63 108.08 02/08/2023 02:52:31 79.29, 32.69 108.11 1.13 64
10 02/08/2023 03:42:55 -79.52,-158.16 72.27 02/08/2023 03:43:10 -79.52,-158.20 72.28 0.74 15
11 02/10/2023 18:19:08 -79.41, -17.93 72.94 02/10/2023 18:18:39 -79.41, -17.95 72.91 0.46 29



Historial Predications of SNOs between AQUA and NPP
